User: anonymous   Login
Location: Caltech
(34.1382°N, 118.1253°W)
Time: 03:29:50
(UTC-07:00)
Language:

Lacrosse 5 - Orbit

View from above orbital plane
View from above orbital plane
View from above satellite
View from above satellite

Ground track
Ground track

The orbit data is extracted from the following two-line orbital elements,

1 28646U 05016A   16203.07648266 0.00000000  00000-0  00000-0 0    02
2 28646  57.0130 281.7031 0004500 215.1573 144.8427 14.51932432    03
Epoch (UTC): 21 July 2016 01:50:08
Eccentricity: 0.0004500
inclination: 57.0130°
perigee height: 716 km
apogee height: 722 km
right ascension of ascending node: 281.7031°
argument of perigee: 215.1573°
revolutions per day: 14.51932432
mean anomaly at epoch: 144.8427°
orbit number at epoch: 0

The dashed part of the orbit path shows where the satellite is in the earth's shadow,  

DLR